Time,TemperatureF,DewpointF,PressureIn,WindDirection,WindDirectionDegrees,WindSpeedMPH,WindSpeedGustMPH,Humidity,HourlyPrecipIn,Conditions,Clouds,dailyrainin,SoftwareType,DateUTC
2013-09-05 00:02:00,62.5,56.2,30.12,East,95,0.0,0.0,80,0.00,,SCT120,0.00,VWS V14.01,2013-09-05 05:02:00,
2013-09-05 00:07:00,62.5,56.2,30.12,East,95,0.0,0.0,80,0.00,,SCT120,0.00,VWS V14.01,2013-09-05 05:07:00,
2013-09-05 00:12:00,62.3,56.4,30.12,East,95,0.0,1.0,81,0.00,,SCT120,0.00,VWS V14.01,2013-09-05 05:12:00,
2013-09-05 00:17:00,62.2,56.3,30.12,East,96,0.0,1.0,81,0.00,,SCT120,0.00,VWS V14.01,2013-09-05 05:17:00,
2013-09-05 00:22:00,62.1,56.2,30.12,East,86,0.0,1.0,81,0.00,,SCT120,0.00,VWS V14.01,2013-09-05 05:22:00,
2013-09-05 00:27:00,62.0,56.1,30.12,East,101,0.0,1.0,81,0.00,,SCT120,0.00,VWS V14.01,2013-09-05 05:27:00,
2013-09-05 00:32:00,61.8,56.2,30.12,East,101,0.0,1.0,82,0.00,,SCT120,0.00,VWS V14.01,2013-09-05 05:32:00,
2013-09-05 00:37:00,61.6,56.1,30.12,East,99,0.0,1.0,82,0.00,,SCT120,0.00,VWS V14.01,2013-09-05 05:37:00,
2013-09-05 00:42:00,61.5,56.0,30.12,East,99,0.0,1.0,82,0.00,,SCT120,0.00,VWS V14.01,2013-09-05 05:42:00,
2013-09-05 00:47:00,61.2,56.0,30.12,East,99,0.0,1.0,83,0.00,,SCT120,0.00,VWS V14.01,2013-09-05 05:47:00,
2013-09-05 00:52:00,60.9,55.7,30.12,East,99,0.0,1.0,83,0.00,,SCT120,0.00,VWS V14.01,2013-09-05 05:52:00,
2013-09-05 00:57:00,60.4,55.2,30.12,East,99,0.0,1.0,83,0.00,,SCT120,0.00,VWS V14.01,2013-09-05 05:57:00,
2013-09-05 01:02:00,59.9,55.1,30.12,East,99,0.0,0.0,84,0.00,,SCT120,0.00,VWS V14.01,2013-09-05 06:02:00,
2013-09-05 01:07:00,59.6,55.1,30.12,East,99,0.0,0.0,85,0.00,,SCT120,0.00,VWS V14.01,2013-09-05 06:07:00,
2013-09-05 01:12:00,59.3,55.1,30.13,East,99,0.0,0.0,86,0.00,,SCT120,0.00,VWS V14.01,2013-09-05 06:12:00,
2013-09-05 01:17:00,59.0,54.8,30.13,East,99,0.0,0.0,86,0.00,,SCT120,0.00,VWS V14.01,2013-09-05 06:17:00,
2013-09-05 01:22:00,58.7,54.5,30.13,East,99,0.0,0.0,86,0.00,,SCT120,0.00,VWS V14.01,2013-09-05 06:22:00,
2013-09-05 01:27:00,58.3,54.5,30.13,East,99,0.0,0.0,87,0.00,,SCT120,0.00,VWS V14.01,2013-09-05 06:27:00,
2013-09-05 01:32:00,58.3,55.1,30.13,East,98,0.0,0.0,89,0.00,,CLR,0.00,VWS V14.01,2013-09-05 06:32:00,
2013-09-05 01:37:00,58.2,55.0,30.13,East,99,0.0,0.0,89,0.00,,CLR,0.00,VWS V14.01,2013-09-05 06:37:00,
2013-09-05 01:42:00,57.9,54.4,30.13,East,99,0.0,0.0,88,0.00,,CLR,0.00,VWS V14.01,2013-09-05 06:42:00,
2013-09-05 01:47:00,57.6,54.4,30.13,East,99,0.0,0.0,89,0.00,,CLR,0.00,VWS V14.01,2013-09-05 06:47:00,
2013-09-05 01:52:00,57.2,54.0,30.13,East,99,0.0,0.0,89,0.00,,SCT110,0.00,VWS V14.01,2013-09-05 06:52:00,
2013-09-05 01:57:00,57.0,54.1,30.13,East,99,0.0,0.0,90,0.00,,SCT110,0.00,VWS V14.01,2013-09-05 06:57:00,
2013-09-05 02:02:00,56.8,54.2,30.13,East,99,0.0,0.0,91,0.00,,SCT110,0.00,VWS V14.01,2013-09-05 07:02:00,
2013-09-05 02:07:00,56.8,54.2,30.13,East,99,0.0,0.0,91,0.00,,SCT110,0.00,VWS V14.01,2013-09-05 07:07:00,
2013-09-05 02:12:00,56.6,54.3,30.13,East,99,0.0,0.0,92,0.00,,SCT110,0.00,VWS V14.01,2013-09-05 07:12:00,
2013-09-05 02:17:00,56.5,54.2,30.13,East,99,0.0,0.0,92,0.00,,SCT110,0.00,VWS V14.01,2013-09-05 07:17:00,
2013-09-05 02:22:00,56.4,54.4,30.13,East,99,0.0,0.0,93,0.00,,SCT110,0.00,VWS V14.01,2013-09-05 07:22:00,
2013-09-05 02:27:00,56.3,54.3,30.14,East,99,0.0,0.0,93,0.00,,SCT110,0.00,VWS V14.01,2013-09-05 07:27:00,
2013-09-05 02:32:00,56.1,54.1,30.14,East,99,0.0,0.0,93,0.00,,BKN120,0.00,VWS V14.01,2013-09-05 07:32:00,
2013-09-05 02:37:00,56.0,54.0,30.14,East,99,0.0,0.0,93,0.00,,BKN120,0.00,VWS V14.01,2013-09-05 07:37:00,
2013-09-05 02:42:00,55.9,53.9,30.14,East,99,0.0,0.0,93,0.00,,BKN120,0.00,VWS V14.01,2013-09-05 07:42:00,
2013-09-05 02:47:00,55.9,54.2,30.14,East,99,0.0,0.0,94,0.00,,SCT120,0.00,VWS V14.01,2013-09-05 07:47:00,
2013-09-05 02:52:00,55.8,54.1,30.14,East,99,0.0,0.0,94,0.00,,BKN120,0.00,VWS V14.01,2013-09-05 07:52:00,
2013-09-05 02:57:00,55.5,53.5,30.14,East,99,0.0,0.0,93,0.00,,BKN120,0.00,VWS V14.01,2013-09-05 07:57:00,
2013-09-05 03:02:00,55.2,53.5,30.14,East,99,0.0,0.0,94,0.00,,BKN120,0.00,VWS V14.01,2013-09-05 08:02:00,
2013-09-05 03:07:00,55.1,53.4,30.14,East,99,0.0,0.0,94,0.00,,BKN120,0.00,VWS V14.01,2013-09-05 08:07:00,
2013-09-05 03:12:00,55.3,53.9,30.14,East,98,0.0,0.0,95,0.00,,BKN120,0.00,VWS V14.01,2013-09-05 08:12:00,
2013-09-05 03:17:00,55.1,53.4,30.14,East,99,0.0,0.0,94,0.00,,BKN120,0.00,VWS V14.01,2013-09-05 08:17:00,
2013-09-05 03:22:00,54.9,53.2,30.14,East,99,0.0,0.0,94,0.00,,BKN120,0.00,VWS V14.01,2013-09-05 08:22:00,
2013-09-05 03:27:00,54.7,53.0,30.14,East,99,0.0,0.0,94,0.00,,BKN120,0.00,VWS V14.01,2013-09-05 08:27:00,
2013-09-05 03:32:00,55.0,53.6,30.14,East,99,0.0,0.0,95,0.00,,BKN110,0.00,VWS V14.01,2013-09-05 08:32:00,
2013-09-05 03:37:00,55.2,53.8,30.14,East,99,0.0,0.0,95,0.00,,BKN110,0.00,VWS V14.01,2013-09-05 08:37:00,
2013-09-05 03:42:00,55.3,53.9,30.14,East,99,0.0,0.0,95,0.00,,BKN110,0.00,VWS V14.01,2013-09-05 08:42:00,
2013-09-05 03:47:00,55.3,53.9,30.14,East,99,0.0,0.0,95,0.00,,BKN120,0.00,VWS V14.01,2013-09-05 08:47:00,
2013-09-05 03:52:00,55.2,53.8,30.14,East,99,0.0,0.0,95,0.00,,BKN110,0.00,VWS V14.01,2013-09-05 08:52:00,
2013-09-05 03:57:00,55.1,53.7,30.15,East,99,0.0,0.0,95,0.00,,BKN110,0.00,VWS V14.01,2013-09-05 08:57:00,
2013-09-05 04:02:00,55.0,53.6,30.15,East,99,0.0,0.0,95,0.00,,BKN110,0.00,VWS V14.01,2013-09-05 09:02:00,
2013-09-05 04:07:00,54.8,53.4,30.15,East,99,0.0,0.0,95,0.00,,BKN110,0.00,VWS V14.01,2013-09-05 09:07:00,
2013-09-05 04:12:00,54.6,53.2,30.15,East,99,0.0,0.0,95,0.00,,BKN110,0.00,VWS V14.01,2013-09-05 09:12:00,
2013-09-05 04:17:00,54.6,53.2,30.15,East,99,0.0,1.0,95,0.00,,BKN110,0.00,VWS V14.01,2013-09-05 09:17:00,
2013-09-05 04:22:00,54.5,53.1,30.15,East,98,0.0,1.0,95,0.00,,BKN110,0.00,VWS V14.01,2013-09-05 09:22:00,
2013-09-05 04:27:00,54.4,53.0,30.15,East,99,0.0,1.0,95,0.00,,BKN110,0.00,VWS V14.01,2013-09-05 09:27:00,
2013-09-05 04:32:00,54.3,52.9,30.15,East,99,0.0,0.0,95,0.00,,BKN110,0.00,VWS V14.01,2013-09-05 09:32:00,
2013-09-05 04:37:00,54.2,52.8,30.16,East,99,0.0,0.0,95,0.00,,BKN110,0.00,VWS V14.01,2013-09-05 09:37:00,
2013-09-05 04:42:00,53.9,52.5,30.16,East,99,0.0,0.0,95,0.00,,BKN110,0.00,VWS V14.01,2013-09-05 09:42:00,
2013-09-05 04:47:00,53.7,52.3,30.16,East,99,0.0,0.0,95,0.00,,BKN110,0.00,VWS V14.01,2013-09-05 09:47:00,
2013-09-05 04:52:00,53.6,52.5,30.16,East,99,0.0,0.0,96,0.00,,BKN110,0.00,VWS V14.01,2013-09-05 09:52:00,
2013-09-05 04:57:00,53.5,52.4,30.16,East,99,0.0,0.0,96,0.00,,BKN110,0.00,VWS V14.01,2013-09-05 09:57:00,
2013-09-05 05:02:00,53.3,52.2,30.17,East,98,0.0,0.0,96,0.00,,BKN110,0.00,VWS V14.01,2013-09-05 10:02:00,
2013-09-05 05:07:00,53.3,52.2,30.17,East,88,0.0,2.0,96,0.00,,BKN110,0.00,VWS V14.01,2013-09-05 10:07:00,
2013-09-05 05:12:00,53.3,52.2,30.17,ENE,74,2.0,2.0,96,0.00,,BKN110,0.00,VWS V14.01,2013-09-05 10:12:00,
2013-09-05 05:17:00,53.5,52.4,30.17,ENE,72,1.0,2.0,96,0.00,,BKN110,0.00,VWS V14.01,2013-09-05 10:17:00,
2013-09-05 05:22:00,53.6,52.2,30.17,ENE,72,0.0,2.0,95,0.00,,BKN110,0.00,VWS V14.01,2013-09-05 10:22:00,
2013-09-05 05:27:00,53.4,52.0,30.17,ENE,72,0.0,2.0,95,0.00,,BKN110,0.00,VWS V14.01,2013-09-05 10:27:00,
2013-09-05 05:32:00,53.4,52.0,30.17,East,80,0.0,1.0,95,0.00,,BKN110,0.00,VWS V14.01,2013-09-05 10:32:00,
2013-09-05 05:37:00,53.3,51.9,30.17,East,82,0.0,1.0,95,0.00,,BKN110,0.00,VWS V14.01,2013-09-05 10:37:00,
2013-09-05 05:42:00,53.2,51.8,30.17,East,82,0.0,1.0,95,0.00,,BKN110,0.00,VWS V14.01,2013-09-05 10:42:00,
2013-09-05 05:47:00,53.1,51.7,30.17,East,82,0.0,1.0,95,0.00,,BKN110,0.00,VWS V14.01,2013-09-05 10:47:00,
2013-09-05 05:52:00,53.0,51.6,30.17,East,82,0.0,1.0,95,0.00,,BKN110,0.00,VWS V14.01,2013-09-05 10:52:00,
2013-09-05 05:57:00,52.7,51.3,30.17,East,82,0.0,1.0,95,0.00,,BKN110,0.00,VWS V14.01,2013-09-05 10:57:00,
2013-09-05 06:02:00,52.4,51.0,30.18,East,82,0.0,0.0,95,0.00,,BKN110,0.00,VWS V14.01,2013-09-05 11:02:00,
2013-09-05 06:07:00,52.2,50.8,30.17,East,82,0.0,0.0,95,0.00,,BKN110,0.00,VWS V14.01,2013-09-05 11:07:00,
2013-09-05 06:12:00,52.1,50.7,30.18,East,82,0.0,1.0,95,0.00,,BKN110,0.00,VWS V14.01,2013-09-05 11:12:00,
2013-09-05 06:17:00,51.9,50.5,30.18,East,82,0.0,1.0,95,0.00,,BKN110,0.00,VWS V14.01,2013-09-05 11:17:00,
2013-09-05 06:22:00,51.9,50.8,30.18,East,82,0.0,1.0,96,0.00,,BKN110,0.00,VWS V14.01,2013-09-05 11:22:00,
2013-09-05 06:27:00,51.9,50.8,30.18,East,82,0.0,1.0,96,0.00,,BKN110,0.00,VWS V14.01,2013-09-05 11:27:00,
2013-09-05 06:32:00,52.0,50.6,30.18,East,79,1.0,2.0,95,0.00,,BKN110,0.00,VWS V14.01,2013-09-05 11:32:00,
2013-09-05 06:37:00,52.1,50.7,30.18,East,96,0.0,2.0,95,0.00,,BKN110,0.00,VWS V14.01,2013-09-05 11:37:00,
2013-09-05 06:42:00,52.2,50.8,30.18,East,96,0.0,2.0,95,0.00,,BKN110,0.00,VWS V14.01,2013-09-05 11:42:00,
2013-09-05 06:47:00,52.0,50.3,30.19,East,96,0.0,2.0,94,0.00,,BKN110,0.00,VWS V14.01,2013-09-05 11:47:00,
2013-09-05 06:52:00,51.9,50.2,30.19,East,96,0.0,2.0,94,0.00,,BKN110,0.00,VWS V14.01,2013-09-05 11:52:00,
2013-09-05 06:57:00,51.9,50.5,30.18,East,96,0.0,2.0,95,0.00,,BKN110,0.00,VWS V14.01,2013-09-05 11:57:00,
2013-09-05 07:02:00,52.4,51.0,30.18,East,96,0.0,0.0,95,0.00,,BKN110,0.00,VWS V14.01,2013-09-05 12:02:00,
2013-09-05 07:07:00,53.2,51.8,30.18,East,96,0.0,0.0,95,0.00,,BKN110,0.00,VWS V14.01,2013-09-05 12:07:00,
2013-09-05 07:12:00,53.7,52.0,30.19,East,96,0.0,0.0,94,0.00,,BKN110,0.00,VWS V14.01,2013-09-05 12:12:00,
2013-09-05 07:17:00,54.1,52.1,30.19,East,98,0.0,0.0,93,0.00,,BKN110,0.00,VWS V14.01,2013-09-05 12:17:00,
2013-09-05 07:22:00,54.5,52.2,30.19,East,99,0.0,0.0,92,0.00,,BKN110,0.00,VWS V14.01,2013-09-05 12:22:00,
2013-09-05 07:27:00,54.5,51.6,30.19,East,84,1.0,2.0,90,0.00,,BKN110,0.00,VWS V14.01,2013-09-05 12:27:00,
2013-09-05 07:32:00,54.4,50.9,30.19,ENE,72,1.0,3.0,88,0.00,,SCT110,0.00,VWS V14.01,2013-09-05 12:32:00,
2013-09-05 07:37:00,54.5,50.7,30.19,ENE,70,1.0,5.0,87,0.00,,SCT110,0.00,VWS V14.01,2013-09-05 12:37:00,
2013-09-05 07:42:00,54.6,50.5,30.19,East,86,0.0,5.0,86,0.00,,SCT110,0.00,VWS V14.01,2013-09-05 12:42:00,
2013-09-05 07:47:00,54.9,50.8,30.19,ENE,68,4.0,5.0,86,0.00,,BKN110,0.00,VWS V14.01,2013-09-05 12:47:00,
2013-09-05 07:52:00,55.0,50.6,30.19,ENE,67,0.0,5.0,85,0.00,,SCT100,0.00,VWS V14.01,2013-09-05 12:52:00,
2013-09-05 07:57:00,55.1,50.4,30.19,East,79,0.0,5.0,84,0.00,,SCT100,0.00,VWS V14.01,2013-09-05 12:57:00,
2013-09-05 08:02:00,55.2,50.5,30.19,East,79,1.0,4.0,84,0.00,,SCT100,0.00,VWS V14.01,2013-09-05 13:02:00,
2013-09-05 08:07:00,55.4,50.7,30.19,East,91,0.0,4.0,84,0.00,,SCT100,0.00,VWS V14.01,2013-09-05 13:07:00,
2013-09-05 08:12:00,55.8,50.7,30.19,ENE,76,2.0,4.0,83,0.00,,SCT100,0.00,VWS V14.01,2013-09-05 13:12:00,
2013-09-05 08:17:00,56.0,50.6,30.19,ENE,64,1.0,4.0,82,0.00,,SCT100,0.00,VWS V14.01,2013-09-05 13:17:00,
2013-09-05 08:22:00,56.5,50.8,30.19,ENE,71,4.0,4.0,81,0.00,,SCT100,0.00,VWS V14.01,2013-09-05 13:22:00,
2013-09-05 08:27:00,56.7,50.6,30.19,ENE,77,0.0,4.0,80,0.00,,SCT100,0.00,VWS V14.01,2013-09-05 13:27:00,
2013-09-05 08:32:00,57.0,50.9,30.19,East,86,0.0,2.0,80,0.00,,SCT100,0.00,VWS V14.01,2013-09-05 13:32:00,
2013-09-05 08:37:00,57.3,50.8,30.19,ENE,75,1.0,3.0,79,0.00,,SCT100,0.00,VWS V14.01,2013-09-05 13:37:00,
2013-09-05 08:42:00,57.8,51.0,30.19,ENE,65,2.0,3.0,78,0.00,,SCT100,0.00,VWS V14.01,2013-09-05 13:42:00,
2013-09-05 08:47:00,57.9,50.7,30.19,East,93,2.0,4.0,77,0.00,,SCT100,0.00,VWS V14.01,2013-09-05 13:47:00,
2013-09-05 08:52:00,58.3,50.8,30.19,East,88,0.0,4.0,76,0.00,,CLR,0.00,VWS V14.01,2013-09-05 13:52:00,
2013-09-05 08:57:00,58.9,51.4,30.19,East,83,0.0,4.0,76,0.00,,CLR,0.00,VWS V14.01,2013-09-05 13:57:00,
2013-09-05 09:02:00,59.4,50.8,30.19,East,80,4.0,4.0,73,0.00,,CLR,0.00,VWS V14.01,2013-09-05 14:02:00,
2013-09-05 09:07:00,59.7,50.7,30.19,East,90,1.0,5.0,72,0.00,,CLR,0.00,VWS V14.01,2013-09-05 14:07:00,
2013-09-05 09:12:00,60.1,49.9,30.19,ESE,102,3.0,5.0,69,0.00,,CLR,0.00,VWS V14.01,2013-09-05 14:12:00,
2013-09-05 09:17:00,60.7,50.5,30.20,East,97,3.0,5.0,69,0.00,,CLR,0.00,VWS V14.01,2013-09-05 14:17:00,
2013-09-05 09:22:00,61.3,51.1,30.20,East,86,4.0,5.0,69,0.00,,CLR,0.00,VWS V14.01,2013-09-05 14:22:00,
2013-09-05 09:27:00,61.6,51.0,30.20,East,95,2.0,5.0,68,0.00,,CLR,0.00,VWS V14.01,2013-09-05 14:27:00,
2013-09-05 09:32:00,62.1,50.6,30.20,ENE,68,4.0,5.0,66,0.00,,CLR,0.00,VWS V14.01,2013-09-05 14:32:00,
2013-09-05 09:37:00,62.9,51.0,30.20,SE,128,1.0,5.0,65,0.00,,CLR,0.00,VWS V14.01,2013-09-05 14:37:00,
2013-09-05 09:42:00,63.2,50.4,30.20,NE,49,2.0,6.0,63,0.00,,CLR,0.00,VWS V14.01,2013-09-05 14:42:00,
2013-09-05 09:47:00,64.0,51.6,30.20,ESE,106,2.0,6.0,64,0.00,,CLR,0.00,VWS V14.01,2013-09-05 14:47:00,
2013-09-05 09:52:00,64.6,51.3,30.20,ESE,115,0.0,6.0,62,0.00,,SCT095,0.00,VWS V14.01,2013-09-05 14:52:00,
2013-09-05 09:57:00,65.3,51.5,30.20,East,100,1.0,6.0,61,0.00,,CLR,0.00,VWS V14.01,2013-09-05 14:57:00,
2013-09-05 10:02:00,65.6,52.2,30.20,ESE,115,1.0,5.0,62,0.00,,SCT095,0.00,VWS V14.01,2013-09-05 15:02:00,
2013-09-05 10:07:00,66.1,51.8,30.20,ESE,121,3.0,5.0,60,0.00,,SCT095,0.00,VWS V14.01,2013-09-05 15:07:00,
2013-09-05 10:12:00,66.3,52.5,30.20,ESE,108,2.0,5.0,61,0.00,,SCT095,0.00,VWS V14.01,2013-09-05 15:12:00,
2013-09-05 10:17:00,66.9,52.1,30.20,ENE,76,5.0,6.0,59,0.00,,CLR,0.00,VWS V14.01,2013-09-05 15:17:00,
2013-09-05 10:22:00,67.5,52.7,30.19,ESE,117,1.0,6.0,59,0.00,,SCT095,0.00,VWS V14.01,2013-09-05 15:22:00,
2013-09-05 10:27:00,68.1,51.8,30.19,ESE,112,1.0,7.0,56,0.00,,SCT095,0.00,VWS V14.01,2013-09-05 15:27:00,
2013-09-05 10:32:00,68.3,52.0,30.19,East,101,5.0,7.0,56,0.00,,CLR,0.00,VWS V14.01,2013-09-05 15:32:00,
2013-09-05 10:37:00,68.8,52.5,30.19,East,100,9.0,9.0,56,0.00,,CLR,0.00,VWS V14.01,2013-09-05 15:37:00,
2013-09-05 10:42:00,69.1,53.2,30.19,East,101,3.0,9.0,57,0.00,,CLR,0.00,VWS V14.01,2013-09-05 15:42:00,
2013-09-05 10:47:00,69.8,53.9,30.19,SE,128,3.0,9.0,57,0.00,,CLR,0.00,VWS V14.01,2013-09-05 15:47:00,
2013-09-05 10:52:00,70.6,54.6,30.19,East,92,5.0,9.0,57,0.00,,CLR,0.00,VWS V14.01,2013-09-05 15:52:00,
2013-09-05 10:57:00,70.8,54.3,30.19,East,97,4.0,9.0,56,0.00,,CLR,0.00,VWS V14.01,2013-09-05 15:57:00,
2013-09-05 11:02:00,70.8,54.8,30.19,ESE,120,2.0,7.0,57,0.00,,CLR,0.00,VWS V14.01,2013-09-05 16:02:00,
2013-09-05 11:07:00,71.9,55.4,30.19,ESE,110,5.0,7.0,56,0.00,,CLR,0.00,VWS V14.01,2013-09-05 16:07:00,
2013-09-05 11:12:00,71.8,55.8,30.19,SE,125,0.0,7.0,57,0.00,,CLR,0.00,VWS V14.01,2013-09-05 16:12:00,
2013-09-05 11:17:00,71.9,56.3,30.19,SE,128,2.0,7.0,58,0.00,,CLR,0.00,VWS V14.01,2013-09-05 16:17:00,
2013-09-05 11:22:00,71.9,55.4,30.19,SE,131,1.0,7.0,56,0.00,,CLR,0.00,VWS V14.01,2013-09-05 16:22:00,
2013-09-05 11:27:00,72.0,56.4,30.19,East,97,5.0,8.0,58,0.00,,CLR,0.00,VWS V14.01,2013-09-05 16:27:00,
2013-09-05 11:32:00,72.3,57.2,30.19,SE,131,2.0,9.0,59,0.00,,CLR,0.00,VWS V14.01,2013-09-05 16:32:00,
2013-09-05 11:37:00,72.4,57.8,30.19,East,101,7.0,9.0,60,0.00,,CLR,0.00,VWS V14.01,2013-09-05 16:37:00,
2013-09-05 11:42:00,72.5,58.3,30.19,East,84,5.0,9.0,61,0.00,,CLR,0.00,VWS V14.01,2013-09-05 16:42:00,
2013-09-05 11:47:00,73.2,59.4,30.19,SSE,150,2.0,9.0,62,0.00,,CLR,0.00,VWS V14.01,2013-09-05 16:47:00,
2013-09-05 11:52:00,73.4,58.7,30.18,SE,134,2.0,9.0,60,0.00,,CLR,0.00,VWS V14.01,2013-09-05 16:52:00,
2013-09-05 11:57:00,73.5,59.7,30.18,SE,140,1.0,9.0,62,0.00,,CLR,0.00,VWS V14.01,2013-09-05 16:57:00,
2013-09-05 12:02:00,73.6,59.3,30.18,ESE,121,2.0,8.0,61,0.00,,CLR,0.00,VWS V14.01,2013-09-05 17:02:00,
2013-09-05 12:07:00,74.3,59.5,30.18,ESE,105,4.0,8.0,60,0.00,,CLR,0.00,VWS V14.01,2013-09-05 17:07:00,
2013-09-05 12:12:00,74.8,60.5,30.18,ESE,107,3.0,8.0,61,0.00,,CLR,0.00,VWS V14.01,2013-09-05 17:12:00,
2013-09-05 12:17:00,74.8,59.5,30.18,ESE,108,4.0,8.0,59,0.00,,CLR,0.00,VWS V14.01,2013-09-05 17:17:00,
2013-09-05 12:22:00,74.9,59.6,30.18,ENE,64,3.0,10.0,59,0.00,,CLR,0.00,VWS V14.01,2013-09-05 17:22:00,
2013-09-05 12:27:00,74.8,59.0,30.18,ESE,112,2.0,10.0,58,0.00,,CLR,0.00,VWS V14.01,2013-09-05 17:27:00,
2013-09-05 12:32:00,75.8,58.5,30.18,SSW,194,0.0,3.0,55,0.00,,CLR,0.00,VWS V14.01,2013-09-05 17:32:00,
2013-09-05 12:37:00,76.1,59.3,30.18,SE,139,1.0,4.0,56,0.00,,CLR,0.00,VWS V14.01,2013-09-05 17:37:00,
2013-09-05 12:42:00,76.3,59.0,30.18,ESE,103,5.0,7.0,55,0.00,,CLR,0.00,VWS V14.01,2013-09-05 17:42:00,
2013-09-05 12:47:00,75.7,59.4,30.17,East,90,3.0,8.0,57,0.00,,CLR,0.00,VWS V14.01,2013-09-05 17:47:00,
2013-09-05 12:52:00,75.7,57.4,30.17,ESE,110,2.0,8.0,53,0.00,,CLR,0.00,VWS V14.01,2013-09-05 17:52:00,
2013-09-05 12:56:00,76.2,58.4,30.17,East,98,2.0,8.0,54,0.00,,CLR,0.00,VWS V14.01,2013-09-05 17:56:00,
2013-09-05 13:01:00,76.9,58.5,30.17,East,90,4.0,8.0,53,0.00,,CLR,0.00,VWS V14.01,2013-09-05 18:01:00,
2013-09-05 13:06:00,77.3,59.9,30.16,East,98,5.0,8.0,55,0.00,,CLR,0.00,VWS V14.01,2013-09-05 18:06:00,
2013-09-05 13:11:00,77.2,59.8,30.16,ESE,122,3.0,9.0,55,0.00,,CLR,0.00,VWS V14.01,2013-09-05 18:11:00,
2013-09-05 13:16:00,76.9,59.0,30.16,East,101,1.0,9.0,54,0.00,,CLR,0.00,VWS V14.01,2013-09-05 18:16:00,
2013-09-05 13:21:00,77.8,57.1,30.16,ENE,77,8.0,9.0,49,0.00,,CLR,0.00,VWS V14.01,2013-09-05 18:21:00,
2013-09-05 13:26:00,77.4,57.9,30.16,East,87,7.0,9.0,51,0.00,,CLR,0.00,VWS V14.01,2013-09-05 18:26:00,
2013-09-05 13:31:00,77.2,58.2,30.15,ESE,120,4.0,7.0,52,0.00,,CLR,0.00,VWS V14.01,2013-09-05 18:31:00,
2013-09-05 13:36:00,77.5,57.4,30.15,SE,133,1.0,7.0,50,0.00,,CLR,0.00,VWS V14.01,2013-09-05 18:36:00,
2013-09-05 13:41:00,78.0,56.2,30.15,East,101,2.0,7.0,47,0.00,,CLR,0.00,VWS V14.01,2013-09-05 18:41:00,
2013-09-05 13:46:00,78.0,56.7,30.15,SSE,148,2.0,7.0,48,0.00,,CLR,0.00,VWS V14.01,2013-09-05 18:46:00,
2013-09-05 13:51:00,78.9,54.5,30.15,SSE,153,2.0,7.0,43,0.00,,CLR,0.00,VWS V14.01,2013-09-05 18:51:00,
2013-09-05 13:57:00,79.4,55.6,30.15,SE,145,2.0,7.0,44,0.00,,CLR,0.00,VWS V14.01,2013-09-05 18:57:00,
2013-09-05 14:02:00,79.7,56.5,30.15,ENE,61,2.0,5.0,45,0.00,,CLR,0.00,VWS V14.01,2013-09-05 19:02:00,
2013-09-05 14:07:00,79.5,55.7,30.14,ESE,117,2.0,5.0,44,0.00,,CLR,0.00,VWS V14.01,2013-09-05 19:07:00,
2013-09-05 14:12:00,79.6,55.8,30.14,ENE,77,0.0,5.0,44,0.00,,CLR,0.00,VWS V14.01,2013-09-05 19:12:00,
2013-09-05 14:17:00,79.7,55.2,30.14,ESE,117,2.0,5.0,43,0.00,,CLR,0.00,VWS V14.01,2013-09-05 19:17:00,
2013-09-05 14:22:00,79.7,57.7,30.14,ESE,110,4.0,5.0,47,0.00,,CLR,0.00,VWS V14.01,2013-09-05 19:22:00,
2013-09-05 14:27:00,80.0,55.5,30.13,ESE,121,1.0,7.0,43,0.00,,CLR,0.00,VWS V14.01,2013-09-05 19:27:00,
2013-09-05 14:32:00,80.5,56.6,30.13,ESE,115,2.0,6.0,44,0.00,,CLR,0.00,VWS V14.01,2013-09-05 19:32:00,
2013-09-05 14:37:00,80.0,56.8,30.13,ESE,110,4.0,9.0,45,0.00,,CLR,0.00,VWS V14.01,2013-09-05 19:37:00,
2013-09-05 14:42:00,79.9,56.7,30.13,SE,135,1.0,9.0,45,0.00,,CLR,0.00,VWS V14.01,2013-09-05 19:42:00,
2013-09-05 14:47:00,80.3,56.4,30.13,South,187,3.0,9.0,44,0.00,,CLR,0.00,VWS V14.01,2013-09-05 19:47:00,
2013-09-05 14:52:00,80.5,56.0,30.13,SSE,160,1.0,9.0,43,0.00,,CLR,0.00,VWS V14.01,2013-09-05 19:52:00,
2013-09-05 14:57:00,80.8,55.6,30.13,NW,317,2.0,9.0,42,0.00,,CLR,0.00,VWS V14.01,2013-09-05 19:57:00,
2013-09-05 15:02:00,81.4,54.8,30.13,SSW,204,1.0,4.0,40,0.00,,CLR,0.00,VWS V14.01,2013-09-05 20:02:00,
2013-09-05 15:07:00,81.8,56.5,30.13,SSE,153,2.0,4.0,42,0.00,,CLR,0.00,VWS V14.01,2013-09-05 20:07:00,
2013-09-05 15:12:00,81.9,54.5,30.13,SE,126,1.0,8.0,39,0.00,,CLR,0.00,VWS V14.01,2013-09-05 20:12:00,
2013-09-05 15:17:00,81.4,51.9,30.13,East,97,1.0,8.0,36,0.00,,CLR,0.00,VWS V14.01,2013-09-05 20:17:00,
2013-09-05 15:22:00,81.4,55.5,30.13,ESE,120,1.0,8.0,41,0.00,,CLR,0.00,VWS V14.01,2013-09-05 20:22:00,
2013-09-05 15:27:00,81.6,55.6,30.12,SE,131,0.0,8.0,41,0.00,,CLR,0.00,VWS V14.01,2013-09-05 20:27:00,
2013-09-05 15:32:00,81.9,56.6,30.12,ENE,61,1.0,4.0,42,0.00,,CLR,0.00,VWS V14.01,2013-09-05 20:32:00,
2013-09-05 15:37:00,82.0,56.7,30.12,SE,139,2.0,5.0,42,0.00,,CLR,0.00,VWS V14.01,2013-09-05 20:37:00,
2013-09-05 15:42:00,81.8,55.1,30.12,SE,128,2.0,5.0,40,0.00,,CLR,0.00,VWS V14.01,2013-09-05 20:42:00,
2013-09-05 15:47:00,81.1,55.2,30.11,East,96,4.0,7.0,41,0.00,,CLR,0.00,VWS V14.01,2013-09-05 20:47:00,
2013-09-05 15:52:00,80.8,54.9,30.11,East,91,4.0,7.0,41,0.00,,CLR,0.00,VWS V14.01,2013-09-05 20:52:00,
2013-09-05 15:57:00,80.9,55.7,30.11,SE,132,2.0,7.0,42,0.00,,CLR,0.00,VWS V14.01,2013-09-05 20:57:00,
2013-09-05 16:02:00,81.2,57.9,30.11,WSW,240,2.0,5.0,45,0.00,,CLR,0.00,VWS V14.01,2013-09-05 21:02:00,
2013-09-05 16:07:00,81.5,58.1,30.11,East,98,4.0,5.0,45,0.00,,CLR,0.00,VWS V14.01,2013-09-05 21:07:00,
2013-09-05 16:12:00,81.0,57.7,30.11,ESE,110,4.0,6.0,45,0.00,,CLR,0.00,VWS V14.01,2013-09-05 21:12:00,
2013-09-05 16:17:00,81.3,58.6,30.11,South,173,1.0,6.0,46,0.00,,CLR,0.00,VWS V14.01,2013-09-05 21:17:00,
2013-09-05 16:22:00,82.3,58.9,30.11,SW,229,2.0,6.0,45,0.00,,CLR,0.00,VWS V14.01,2013-09-05 21:22:00,
2013-09-05 16:27:00,82.6,59.1,30.11,SSW,204,1.0,6.0,45,0.00,,CLR,0.00,VWS V14.01,2013-09-05 21:27:00,
2013-09-05 16:32:00,82.4,58.3,30.10,ESE,108,2.0,3.0,44,0.00,,CLR,0.00,VWS V14.01,2013-09-05 21:32:00,
2013-09-05 16:37:00,82.2,59.4,30.10,SW,217,3.0,5.0,46,0.00,,CLR,0.00,VWS V14.01,2013-09-05 21:37:00,
2013-09-05 16:42:00,82.1,59.3,30.10,SSE,153,2.0,5.0,46,0.00,,CLR,0.00,VWS V14.01,2013-09-05 21:42:00,
2013-09-05 16:47:00,82.1,59.3,30.10,ESE,117,3.0,5.0,46,0.00,,CLR,0.00,VWS V14.01,2013-09-05 21:47:00,
2013-09-05 16:52:00,82.3,59.5,30.10,ESE,121,2.0,5.0,46,0.00,,CLR,0.00,VWS V14.01,2013-09-05 21:52:00,
2013-09-05 16:57:00,82.1,59.3,30.10,SE,145,1.0,5.0,46,0.00,,CLR,0.00,VWS V14.01,2013-09-05 21:57:00,
2013-09-05 17:02:00,82.0,59.2,30.09,SSE,153,1.0,5.0,46,0.00,,CLR,0.00,VWS V14.01,2013-09-05 22:02:00,
2013-09-05 17:06:00,82.0,59.8,30.09,ESE,115,0.0,5.0,47,0.00,,CLR,0.00,VWS V14.01,2013-09-05 22:06:00,
2013-09-05 17:11:00,82.0,58.6,30.09,East,93,2.0,7.0,45,0.00,,CLR,0.00,VWS V14.01,2013-09-05 22:11:00,
2013-09-05 17:16:00,81.7,58.3,30.09,SE,139,1.0,7.0,45,0.00,,CLR,0.00,VWS V14.01,2013-09-05 22:16:00,
2013-09-05 17:21:00,81.6,58.8,30.09,SE,125,2.0,7.0,46,0.00,,CLR,0.00,VWS V14.01,2013-09-05 22:21:00,
2013-09-05 17:26:00,81.6,58.8,30.09,SE,128,1.0,7.0,46,0.00,,CLR,0.00,VWS V14.01,2013-09-05 22:26:00,
2013-09-05 17:31:00,81.6,58.8,30.08,South,173,0.0,2.0,46,0.00,,CLR,0.00,VWS V14.01,2013-09-05 22:31:00,
2013-09-05 17:36:00,81.4,58.7,30.08,ESE,114,4.0,5.0,46,0.00,,CLR,0.00,VWS V14.01,2013-09-05 22:36:00,
2013-09-05 17:41:00,80.9,58.2,30.08,ESE,108,5.0,5.0,46,0.00,,CLR,0.00,VWS V14.01,2013-09-05 22:41:00,
2013-09-05 17:46:00,80.7,58.6,30.08,ESE,109,0.0,6.0,47,0.00,,CLR,0.00,VWS V14.01,2013-09-05 22:46:00,
2013-09-05 17:51:00,80.9,58.8,30.08,SSE,149,0.0,6.0,47,0.00,,CLR,0.00,VWS V14.01,2013-09-05 22:51:00,
2013-09-05 17:56:00,81.1,59.0,30.08,ESE,117,2.0,6.0,47,0.00,,CLR,0.00,VWS V14.01,2013-09-05 22:56:00,
2013-09-05 18:01:00,81.0,58.3,30.08,SSE,157,2.0,3.0,46,0.00,,CLR,0.00,VWS V14.01,2013-09-05 23:01:00,
2013-09-05 18:06:00,80.6,58.5,30.08,SE,125,1.0,3.0,47,0.00,,CLR,0.00,VWS V14.01,2013-09-05 23:06:00,
2013-09-05 18:11:00,80.6,59.1,30.08,SSE,156,1.0,3.0,48,0.00,,CLR,0.00,VWS V14.01,2013-09-05 23:11:00,
2013-09-05 18:16:00,80.5,58.4,30.08,ESE,105,1.0,3.0,47,0.00,,CLR,0.00,VWS V14.01,2013-09-05 23:16:00,
2013-09-05 18:21:00,80.4,58.9,30.08,SE,132,1.0,4.0,48,0.00,,CLR,0.00,VWS V14.01,2013-09-05 23:21:00,
2013-09-05 18:26:00,80.3,58.8,30.08,SE,138,0.0,4.0,48,0.00,,CLR,0.00,VWS V14.01,2013-09-05 23:26:00,
2013-09-05 18:31:00,80.2,58.8,30.08,SE,145,0.0,2.0,48,0.00,,CLR,0.00,VWS V14.01,2013-09-05 23:31:00,
2013-09-05 18:36:00,80.2,58.8,30.08,SE,134,0.0,2.0,48,0.00,,CLR,0.00,VWS V14.01,2013-09-05 23:36:00,
2013-09-05 18:41:00,80.2,59.3,30.08,SE,134,0.0,2.0,49,0.00,,CLR,0.00,VWS V14.01,2013-09-05 23:41:00,
2013-09-05 18:46:00,80.1,59.2,30.08,ESE,121,1.0,2.0,49,0.00,,CLR,0.00,VWS V14.01,2013-09-05 23:46:00,
2013-09-05 18:51:00,79.7,58.9,30.08,ESE,109,0.0,2.0,49,0.00,,CLR,0.00,VWS V14.01,2013-09-05 23:51:00,
2013-09-05 18:56:00,79.5,58.7,30.08,ESE,109,0.0,2.0,49,0.00,,CLR,0.00,VWS V14.01,2013-09-05 23:56:00,
2013-09-05 19:01:00,79.2,59.0,30.08,ESE,109,0.0,0.0,50,0.00,,CLR,0.00,VWS V14.01,2013-09-06 00:01:00,
2013-09-05 19:06:00,78.8,58.6,30.07,ESE,110,0.0,1.0,50,0.00,,CLR,0.00,VWS V14.01,2013-09-06 00:06:00,
2013-09-05 19:11:00,78.5,58.9,30.07,ESE,110,0.0,1.0,51,0.00,,CLR,0.00,VWS V14.01,2013-09-06 00:11:00,
2013-09-05 19:16:00,78.2,59.2,30.07,ESE,110,0.0,1.0,52,0.00,,CLR,0.00,VWS V14.01,2013-09-06 00:16:00,
2013-09-05 19:21:00,77.8,58.8,30.07,ESE,110,0.0,1.0,52,0.00,,CLR,0.00,VWS V14.01,2013-09-06 00:21:00,
2013-09-05 19:26:00,77.3,58.8,30.07,ESE,110,0.0,1.0,53,0.00,,CLR,0.00,VWS V14.01,2013-09-06 00:26:00,
2013-09-05 19:31:00,76.8,58.9,30.07,ESE,110,0.0,0.0,54,0.00,,CLR,0.00,VWS V14.01,2013-09-06 00:31:00,
2013-09-05 19:36:00,76.3,59.0,30.07,East,99,2.0,2.0,55,0.00,,CLR,0.00,VWS V14.01,2013-09-06 00:36:00,
2013-09-05 19:41:00,75.6,59.3,30.07,ESE,103,0.0,2.0,57,0.00,,CLR,0.00,VWS V14.01,2013-09-06 00:41:00,
2013-09-05 19:46:00,75.3,59.0,30.07,ESE,103,0.0,2.0,57,0.00,,CLR,0.00,VWS V14.01,2013-09-06 00:46:00,
2013-09-05 19:51:00,75.0,59.2,30.07,ESE,103,0.0,2.0,58,0.00,,CLR,0.00,VWS V14.01,2013-09-06 00:51:00,
2013-09-05 19:56:00,74.7,59.0,30.07,ESE,103,0.0,2.0,58,0.00,,CLR,0.00,VWS V14.01,2013-09-06 00:56:00,
2013-09-05 20:01:00,74.3,59.1,30.07,ESE,103,0.0,1.0,59,0.00,,CLR,0.00,VWS V14.01,2013-09-06 01:01:00,
2013-09-05 20:06:00,74.1,59.3,30.07,ESE,103,1.0,1.0,60,0.00,,CLR,0.00,VWS V14.01,2013-09-06 01:06:00,
2013-09-05 20:11:00,73.8,59.1,30.07,ESE,104,2.0,2.0,60,0.00,,CLR,0.00,VWS V14.01,2013-09-06 01:11:00,
2013-09-05 20:16:00,73.4,59.2,30.07,ESE,103,1.0,2.0,61,0.00,,CLR,0.00,VWS V14.01,2013-09-06 01:16:00,
2013-09-05 20:21:00,73.1,58.9,30.07,ESE,103,1.0,2.0,61,0.00,,CLR,0.00,VWS V14.01,2013-09-06 01:21:00,
2013-09-05 20:26:00,72.8,59.0,30.07,East,100,0.0,2.0,62,0.00,,CLR,0.00,VWS V14.01,2013-09-06 01:26:00,
2013-09-05 20:31:00,72.6,58.8,30.07,East,99,1.0,2.0,62,0.00,,CLR,0.00,VWS V14.01,2013-09-06 01:31:00,
2013-09-05 20:36:00,72.3,59.0,30.07,East,98,1.0,2.0,63,0.00,,CLR,0.00,VWS V14.01,2013-09-06 01:36:00,
2013-09-05 20:41:00,72.1,58.8,30.07,ESE,102,1.0,2.0,63,0.00,,CLR,0.00,VWS V14.01,2013-09-06 01:41:00,
2013-09-05 20:46:00,71.9,59.1,30.08,East,99,1.0,2.0,64,0.00,,CLR,0.00,VWS V14.01,2013-09-06 01:46:00,
2013-09-05 20:51:00,71.7,58.9,30.08,ESE,102,0.0,2.0,64,0.00,,CLR,0.00,VWS V14.01,2013-09-06 01:51:00,
2013-09-05 20:56:00,71.4,59.0,30.08,East,101,0.0,2.0,65,0.00,,CLR,0.00,VWS V14.01,2013-09-06 01:56:00,
2013-09-05 21:01:00,71.2,58.8,30.08,East,101,0.0,0.0,65,0.00,,CLR,0.00,VWS V14.01,2013-09-06 02:01:00,
2013-09-05 21:06:00,70.9,59.0,30.08,ESE,103,1.0,1.0,66,0.00,,CLR,0.00,VWS V14.01,2013-09-06 02:06:00,
2013-09-05 21:11:00,70.8,58.9,30.08,ESE,120,0.0,2.0,66,0.00,,CLR,0.00,VWS V14.01,2013-09-06 02:11:00,
2013-09-05 21:16:00,70.6,58.7,30.08,ESE,117,1.0,2.0,66,0.00,,CLR,0.00,VWS V14.01,2013-09-06 02:16:00,
2013-09-05 21:21:00,70.4,58.5,30.08,ESE,111,0.0,2.0,66,0.00,,CLR,0.00,VWS V14.01,2013-09-06 02:21:00,
2013-09-05 21:26:00,70.4,58.5,30.08,ESE,120,0.0,2.0,66,0.00,,CLR,0.00,VWS V14.01,2013-09-06 02:26:00,
2013-09-05 21:31:00,70.3,58.4,30.08,ESE,120,0.0,0.0,66,0.00,,CLR,0.00,VWS V14.01,2013-09-06 02:31:00,
2013-09-05 21:36:00,70.3,58.8,30.08,SE,139,0.0,1.0,67,0.00,,CLR,0.00,VWS V14.01,2013-09-06 02:36:00,
2013-09-05 21:41:00,70.2,58.7,30.08,SSE,148,0.0,1.0,67,0.00,,CLR,0.00,VWS V14.01,2013-09-06 02:41:00,
2013-09-05 21:46:00,70.3,58.8,30.08,SE,134,0.0,1.0,67,0.00,,CLR,0.00,VWS V14.01,2013-09-06 02:46:00,
2013-09-05 21:51:00,70.2,59.2,30.08,SE,139,0.0,1.0,68,0.00,,CLR,0.00,VWS V14.01,2013-09-06 02:51:00,
2013-09-05 21:56:00,70.1,59.1,30.07,SE,137,0.0,1.0,68,0.00,,CLR,0.00,VWS V14.01,2013-09-06 02:56:00,
2013-09-05 22:01:00,70.1,59.5,30.07,SE,136,0.0,2.0,69,0.00,,CLR,0.00,VWS V14.01,2013-09-06 03:01:00,
2013-09-05 22:06:00,70.1,59.9,30.07,SE,136,0.0,2.0,70,0.00,,CLR,0.00,VWS V14.01,2013-09-06 03:06:00,
2013-09-05 22:11:00,70.1,59.9,30.07,South,171,0.0,2.0,70,0.00,,CLR,0.00,VWS V14.01,2013-09-06 03:11:00,
2013-09-05 22:16:00,70.0,60.2,30.07,ESE,123,0.0,2.0,71,0.00,,CLR,0.00,VWS V14.01,2013-09-06 03:16:00,
2013-09-05 22:21:00,69.9,60.1,30.07,SE,146,0.0,2.0,71,0.00,,CLR,0.00,VWS V14.01,2013-09-06 03:21:00,
2013-09-05 22:26:00,69.9,60.5,30.07,SE,137,0.0,2.0,72,0.00,,CLR,0.00,VWS V14.01,2013-09-06 03:26:00,
2013-09-05 22:31:00,69.8,60.8,30.07,SE,129,0.0,1.0,73,0.00,,CLR,0.00,VWS V14.01,2013-09-06 03:31:00,
2013-09-05 22:36:00,69.7,61.0,30.07,SE,134,0.0,2.0,74,0.00,,CLR,0.00,VWS V14.01,2013-09-06 03:36:00,
2013-09-05 22:41:00,69.7,61.0,30.06,SE,134,1.0,2.0,74,0.00,,CLR,0.00,VWS V14.01,2013-09-06 03:41:00,
2013-09-05 22:46:00,69.7,61.4,30.06,SE,135,0.0,3.0,75,0.00,,CLR,0.00,VWS V14.01,2013-09-06 03:46:00,
2013-09-05 22:51:00,69.7,61.4,30.06,SE,132,0.0,3.0,75,0.00,,CLR,0.00,VWS V14.01,2013-09-06 03:51:00,
2013-09-05 22:56:00,69.6,61.7,30.06,SE,128,1.0,3.0,76,0.00,,CLR,0.00,VWS V14.01,2013-09-06 03:56:00,
2013-09-05 23:01:00,69.6,61.7,30.06,SSE,158,1.0,2.0,76,0.00,,CLR,0.00,VWS V14.01,2013-09-06 04:01:00,
2013-09-05 23:02:00,69.6,61.7,30.06,SE,136,0.0,2.0,76,0.00,,CLR,0.00,VWS V14.01,2013-09-06 04:02:00,
2013-09-05 23:07:00,69.7,61.8,30.06,SE,145,0.0,5.0,76,0.00,,CLR,0.00,VWS V14.01,2013-09-06 04:07:00,
2013-09-05 23:12:00,69.7,61.8,30.06,SE,143,0.0,5.0,76,0.00,,CLR,0.00,VWS V14.01,2013-09-06 04:12:00,
2013-09-05 23:17:00,69.7,61.8,30.06,ESE,123,1.0,5.0,76,0.00,,CLR,0.00,VWS V14.01,2013-09-06 04:17:00,
2013-09-05 23:22:00,69.7,62.2,30.06,SE,142,0.0,5.0,77,0.00,,CLR,0.00,VWS V14.01,2013-09-06 04:22:00,
2013-09-05 23:27:00,69.7,62.2,30.06,SSE,163,0.0,5.0,77,0.00,,CLR,0.00,VWS V14.01,2013-09-06 04:27:00,
2013-09-05 23:32:00,69.7,62.2,30.06,SE,131,0.0,3.0,77,0.00,,CLR,0.00,VWS V14.01,2013-09-06 04:32:00,
2013-09-05 23:37:00,69.7,62.5,30.06,SE,125,0.0,3.0,78,0.00,,CLR,0.00,VWS V14.01,2013-09-06 04:37:00,
2013-09-05 23:42:00,69.7,62.5,30.06,SE,133,0.0,3.0,78,0.00,,CLR,0.00,VWS V14.01,2013-09-06 04:42:00,
2013-09-05 23:47:00,69.7,62.5,30.06,SE,128,0.0,3.0,78,0.00,,CLR,0.00,VWS V14.01,2013-09-06 04:47:00,
2013-09-05 23:52:00,69.6,62.8,30.05,SSE,149,0.0,3.0,79,0.00,,CLR,0.00,VWS V14.01,2013-09-06 04:52:00,
2013-09-05 23:57:00,69.6,62.8,30.05,SE,143,0.0,3.0,79,0.00,,CLR,0.00,VWS V14.01,2013-09-06 04:57:00,